Home   Weather   Riehen   Past weeks

Flag for Switzerland Past Weather in Riehen, Basel-Stadt, Switzerland — Yesterday and Last 2 Weeks

Now
43 °F

Overcast.


Feels Like: 39 °F
Forecast: 29 / 58 °F
Wind: 8 mph from Northwest

Location: Bale-Mulhouse

Current Time: Apr 28, 2017 at 10:46:50 am

Latest Report: Apr 28, 2017 at 10:00 am


Visibility: 6 mi

Pressure: 29.99 "Hg

Humidity: 79%

Dew Point: 37 °F

Location of RiehenLocation

Past Weather in Riehen — Graph

°F

Riehen Temperature Yesterday

Maximum temperature yesterday: 44 °F (at 6:00 pm)
Minimum temperature yesterday: 36 °F (at 6:00 am)
Average temperature yesterday: 40 °F

High & Low Weather Summary for the Past Weeks

 TemperatureHumidityPressure
High69 °F (Apr 24, 5:00 pm)98% (Apr 28, 4:00 am)30.58 "Hg (Apr 28, 4:00 am)
Low25 °F (Apr 20, 7:00 am)19% (Apr 21, 6:00 pm)29.77 "Hg (Apr 25, 1:00 pm)
Average46 °F70%30.15 "Hg
* Reported Apr 13 9:00 am — Apr 28 9:00 am, Riehen, Weather by CustomWeather, © 2017

Note: Actual official high and low records may vary slightly from our data, if they occured in-between our weather recording intervals... More about our weather records

Advertising

Riehen Weather History for the Previous 24 Hours

Scroll right to see more
 ConditionsComfort  
Time TempWeatherWind HumidityBarometerVisibility
9:00 am
Fri, Apr 28
42 °FOvercast.7 mph90%29.98 "Hg6 mi
8:00 am40 °FOvercast.5 mph92%29.98 "Hg4 mi
7:00 am40 °FLight rain. Overcast.5 mph92%29.96 "Hg4 mi
6:00 am40 °FLight rain. Overcast.8 mph95%29.95 "Hg2 mi
5:00 am39 °FLight rain. Overcast.2 mph97%29.95 "Hg2 mi
4:00 am39 °FLight rain. Low clouds.3 mph98%29.94 "Hg1 mi
3:00 am39 °FLight rain. Low clouds.5 mph97%29.95 "Hg2 mi
2:00 am39 °FDrizzle. Low clouds.2 mph96%29.97 "Hg2 mi
1:00 am39 °FLight rain. Overcast.8 mph95%29.96 "Hg3 mi
12:00 am39 °FLight rain. Low clouds.8 mph95%29.98 "Hg2 mi
11:00 pm
Thu, Apr 27
40 °FLight rain. Overcast.5 mph95%29.99 "Hg2 mi
10:00 pm40 °FLight rain. Low clouds.6 mph94%29.99 "Hg2 mi
9:00 pm41 °FLight rain. Low clouds.6 mph93%29.99 "Hg2 mi
8:00 pm41 °FLight rain. Overcast.5 mph91%29.98 "Hg4 mi
7:00 pm42 °FLight rain. Overcast.5 mph88%29.98 "Hg3 mi
6:00 pm44 °FOvercast.3 mph80%29.97 "Hg9 mi
5:00 pm44 °FOvercast.6 mph80%29.98 "Hg9 mi
4:00 pm44 °FOvercast.5 mph81%29.99 "Hg9 mi
3:00 pm42 °FOvercast.7 mph83%30.01 "Hg9 mi
2:00 pm42 °FLight rain. Overcast.6 mph89%30.01 "Hg9 mi
1:00 pm41 °FLight rain. Overcast.8 mph88%30.02 "Hg9 mi
12:00 pm40 °FLight rain. Overcast.7 mph92%30.02 "Hg7 mi
11:00 am39 °FLight rain. Low clouds.9 mph92%30.03 "Hg7 mi
10:00 am38 °FLight rain. Low clouds.7 mph92%30.02 "Hg7 mi
Weather by CustomWeather, © 2017

See weather overviewHow to use our weather pages